This is the latest recevied weather packets stored in our database for station/object OE5XFR. If no packets are shown the sender has not sent any weather packets the latest 10 day(s).
| Time | Temp. | Humidity | Pressure | Rain* | Wind** | Luminosity | Snow |
|---|---|---|---|---|---|---|---|
| 1777760477 | 10.56° C | 41% | 1019 hPa | 0 mm | - | - | - |
| 1777759757 | 12.22° C | 39% | 1019 hPa | 0 mm | - | - | - |
| 1777759036 | 12.22° C | 34% | 1019 hPa | 0 mm | - | - | - |
| 1777758316 | 12.22° C | 34% | 1019 hPa | 0 mm | - | - | - |
| 1777757596 | 12.22° C | 34% | 1019 hPa | 0 mm | - | - | - |
| 1777756876 | 12.78° C | 40% | 1019 hPa | 0 mm | - | - | - |
| 1777756156 | 13.33° C | 38% | 1019 hPa | 0 mm | - | - | - |
| 1777755436 | 13.33° C | 28% | 1019 hPa | 0 mm | - | - | - |
| 1777754716 | 13.89° C | 24% | 1019 hPa | 0 mm | - | - | - |
| 1777753997 | 14.44° C | 22% | 1019 hPa | 0 mm | - | - | - |
| 1777753275 | 15° C | 22% | 1019 hPa | 0 mm | - | - | - |
| 1777752556 | 15.56° C | 24% | 1019 hPa | 0 mm | - | - | - |
| 1777751836 | 15.56° C | 25% | 1019 hPa | 0 mm | - | - | - |
| 1777751116 | 16.11° C | 21% | 1019 hPa | 0 mm | - | - | - |
| 1777750395 | 16.67° C | 14% | 1019 hPa | 0 mm | - | - | - |
| 1777749675 | 17.22° C | 14% | 1020 hPa | 0 mm | - | - | - |
| 1777748956 | 17.78° C | 14% | 1019 hPa | 0 mm | - | - | - |
| 1777748236 | 18.89° C | 12% | 1020 hPa | 0 mm | - | - | - |
| 1777747516 | 18.89° C | 12% | 1020 hPa | 0 mm | - | - | - |
| 1777746795 | 19.44° C | 11% | 1019 hPa | 0 mm | - | - | - |
| 1777746076 | 20° C | 12% | 1020 hPa | 0 mm | - | - | - |
| 1777745356 | 20° C | 13% | 1020 hPa | 0 mm | - | - | - |
| 1777744636 | 20.56° C | 13% | 1019 hPa | 0 mm | - | - | - |
| 1777743915 | 20.56° C | 13% | 1020 hPa | 0 mm | - | - | - |
| 1777743195 | 21.11° C | 13% | 1020 hPa | 0 mm | - | - | - |
* Rain latest hour (hover to see other rain measurements)
** Current wind speed in m/s (hover to see current wind gust speed)